DMSP 5D-2 F13 DEB, 40489

Orbit data source: Space-Track

DMSP 5D-2 F13 DEB, 40489 is space debris in SSO originally from a launch on Fri, 24 Mar 1995 UTC launched from the Air Force Western Test Range (AFWTR). Debris objects in space refer to the collection of defunct objects orbiting the Earth. Examples of debris include non-operational satellites, rocket bodies, and fragments generated from explosions, collisions, or faulty payload assembly.

Loading next visibility...
Identifier
40489, 1995-015CC
Orbit
SSO
Country
Flag of USUS
Related business
Manufacturer
Unknown
Mission
Spacecraft
Bus & Motor
Unknown
Mass
Unknown
Launch date (UTC)
1995-03-24 (31 years ago)
Launch vehicle
Unknown
Launch site
Air Force Western Test Range (AFWTR)
Object type
Payload
Rocket body
Debris
Shape & HBR
Unknown shape, 0.1 m
Radar Cross Section
Medium (>0.1 m² and <1 m²)

Expand to show TLE details & history
Last TLE update: 6 days ago

TLE from 6 days ago
0 DMSP 5D-2 F13 DEB
1 40489U 95015CC  26202.67573791  .00012817  00000-0  29222-2 0  9990
2 40489  98.7195 186.3826 0027048 198.8902 161.1293 14.55727979586321
Epoch: 2026-07-21T16:13Z
TLE epoch observation values (Epoch: 2026-07-21T16:13:03.755Z)
Latitude
-0.00002°
Longitude
3.67494°
Altitude
728.108 km
Speed
7.482 km/s
True Right ascension
12h 25m 31s
True Declination
0° 00' 00"
Sunlit
Object was in daylight at epoch
Visualization orbit readout
Latitude
Unknown
Longitude
Unknown
Altitude
Unknown
Speed
Unknown
Apparent Right ascension
Unknown
Apparent Declination
Unknown
Sunlit
N/A
Visualization observer readout
Local Sidereal Time
20:28:43
Azimuth
Unknown
Elevation
Unknown
Doppler factor
Unknown
Orbital elements
Apogee altitude
723.269 km
Perigee altitude
684.957 km
Semi-major axis
7,082.25 km
Eccentricity
0.0027
Inclination
98.7195°
RAAN
186.3826°
Arg. of periapsis
198.8902°
True anomaly
161.22923°
Mean anomaly
161.1293°
Eccentric anomaly
161.1793°
Mean motion
3.64155 °/min
Orbital period
98.86 mins
BSTAR
0.0029222
Loading maneuver chart data...
Computing Atmospheric mass density...

Documentation

Showing up to 5 results
|